Location: Abu Simbel
(22.3333°N, 31.6167°E)
Time: 02:08:31
(UTC+00:00)

Daily predictions for brighter satellites

Satellite Brightness Start Highest point End
(mag) Time Altitude Azimuth Time Altitude Azimuth Time Altitude Azimuth
CZ-3 R/B 4.2 00:49:11 10° SW 01:27:58 49° SSE 01:37:46 10° E
Milstar 3 Cent rocket 4.1 01:38:59 21° E 01:38:59 21° E 01:40:37 10° E
Centaur D-1AR AC-36 3.5 01:51:25 73° W 01:52:32 88° S 11:33:38 10° SE
Mugunghwa Rocket 4.5 01:55:21 52° NE 01:55:21 52° NE 02:00:30 10° E
Cosmos 2221 4.3 02:03:28 30° ESE 02:04:03 31° E 02:07:55 10° NNE
Cosmos 1980 Rocket 3.4 02:01:47 14° N 02:06:18 39° ENE 02:11:32 10° SE
Meteor 2-3 Rocket 3.8 02:08:16 10° N 02:13:59 74° E 02:19:45 10° SSE
H-2A R/B 4.2 02:10:26 10° SE 02:14:04 26° ENE 02:17:40 10° NNE
METEOR-M 4.1 02:09:47 10° NNE 02:15:07 77° ESE 02:15:10 77° ESE
CZ-3 Stage 3 3.2 02:22:29 21° E 02:22:29 21° E 02:23:16 10° ESE
Meteor 1-4 Rocket 4.4 02:19:56 11° SSE 02:23:09 31° E 02:26:30 10° NNE
BREEZE-M (TANK) 4.5 02:27:26 18° SE 02:27:26 18° SE 02:28:42 10° SE
Cosmos 1269 Rocket 3.8 02:27:18 80° NW 02:27:18 80° NW 02:32:26 10° NNE
Cosmos 292 Rocket 4.3 02:25:47 19° N 02:29:09 57° ENE 02:33:52 10° SSE
Cosmos 1697 Rocket 3.4 02:31:52 36° SSW 02:31:52 36° SSW 02:35:18 10° S
Cosmos 2360 4.1 02:36:10 59° W 02:36:21 59° WSW 02:41:56 10° S
SL-08 R/B 4.5 02:32:27 10° N 02:38:36 81° E 02:44:42 10° S
Cosmos 2369 3.8 02:44:54 46° WNW 02:45:45 50° WSW 02:51:15 10° S
Fermi 3.5 02:45:38 80° SW 02:45:47 84° SSE 02:49:50 10° ENE
IUS R/B (1) 3.4 02:47:47 23° NNE 02:47:47 23° NNE 02:49:37 10° ENE
CZ-4B R/B 4.1 02:46:17 10° NNE 02:50:36 49° E 02:54:57 10° S
Meteor 1-31 Rocket 2.6 02:47:21 10° N 02:51:09 65° WNW 02:51:09 65° WNW
SeaSat 1 2.7 02:46:39 10° SSE 02:51:31 68° ENE 02:56:25 10° NNW
COSMO-SKYMED 1 4.5 02:48:08 10° SE 02:51:56 30° ENE 02:55:44 10° NNE
DELTA 4 R/B 1.4 02:53:53 62° NNW 02:54:05 65° N 02:56:12 10° E
Cosmos 2315 Rocket 4.3 02:50:50 10° S 02:57:02 69° E 03:03:12 10° N
Cosmos 1331 Rocket 4.2 02:53:38 10° N 02:58:47 70° ENE 03:03:53 10° SSE
Hubble Space Telescope 1.9 03:05:43 26° SW 03:06:28 28° SSW 03:10:01 10° SSE
Cosmos 883 Rocket 4.4 03:02:20 10° S 03:08:33 73° W 03:14:43 10° N
Centaur D AC-25 3.8 03:00:33 22° W 03:11:20 66° NNW 03:15:52 10° ENE
Cosmos 1743 Rocket 4.4 03:07:08 10° N 03:11:31 54° E 03:15:51 10° SSE
Cosmos 1461 2.9 03:09:49 19° NW 03:12:45 56° WSW 03:16:43 10° S
COSMOS 2487 4.5 03:11:00 10° SSE 03:14:00 30° E 03:17:01 10° NE
Meteosat 1 Rocket2 4.0 03:11:03 22° WNW 03:14:20 43° N 03:18:32 10° ENE
Cosmos 2251 Rocket 3.9 03:10:41 10° S 03:15:55 69° ESE 03:21:12 10° NNE
GPS 2-04 Rocket1 4.3 03:13:36 10° SSW 03:17:04 32° SE 03:20:40 10° E
Cosmos 1386 Rocket 4.5 03:10:54 10° N 03:17:15 70° W 03:23:30 10° S
Fregat R/B Cluster 11 4.5 03:16:21 27° W 03:17:21 34° NW 03:23:52 10° NNE
CZ-4B R/B 2.1 03:14:10 10° SSE 03:17:23 53° ENE 03:20:31 10° N
Cosmos 2278 4.0 03:12:13 10° NW 03:17:35 43° WSW 03:22:55 10° S
Envisat 3.4 03:12:36 10° NNE 03:17:38 65° ESE 03:22:39 10° S
DELTA 2 R/B (1) 4.0 03:17:31 21° W 03:20:49 44° SW 03:26:05 10° SSE
SL-27 R/B 3.6 03:23:13 22° WNW 03:23:13 22° WNW 03:25:50 10° NNW
Cosmos 2344 4.1 03:18:43 10° WSW 03:25:48 34° WNW 03:32:26 10° N
H-2A R/B 2.7 03:23:11 10° N 03:26:59 58° WNW 03:30:45 10° SSW
YAOGAN 6 2.5 03:24:03 10° NNE 03:27:34 85° E 03:31:02 10° S
Chandra Rocket (1) 4.5 03:27:08 12° WSW 03:28:29 13° SW 03:30:36 10° SSW
CZ-4C R/B 3.9 03:24:47 10° S 03:28:35 28° ESE 03:32:42 10° NE
ASTRO E2 4.2 03:29:13 14° WNW 03:31:40 25° N 03:34:59 10° NE
Meteor PRIRODA 4.0 03:30:24 10° N 03:33:54 40° WNW 03:37:23 10° SSW
Cosmos 1408 Rocket 4.4 03:34:31 10° NNW 03:38:17 28° W 03:42:01 10° SSW
SKYMED 2 3.6 03:35:34 10° S 03:39:49 58° W 03:44:06 10° NNW
Cosmos 2221 4.3 03:40:33 12° W 03:41:33 12° W 03:43:22 10° NW
deb Chang Zheng 4 4.2 03:38:28 10° N 03:42:19 34° WNW 03:46:12 10° SW
USA 276 2.9 03:44:08 10° SSW 03:47:16 55° SE 03:50:23 10° NE
H-2A R/B 3.6 03:47:03 10° SW 03:49:53 17° W 03:52:42 10° WNW
Cosmos 1980 Rocket 3.5 03:46:13 10° WNW 03:49:54 18° W 03:53:34 10° SW
Mugunghwa Rocket 4.0 03:43:49 10° WNW 03:50:14 79° NNE 03:56:34 10° E
Cosmos 1689 Rocket 3.5 03:47:44 10° SSE 03:50:22 40° ENE 03:53:02 10° N
Cosmos 1500 Rocket 3.9 03:46:48 10° NNW 03:50:53 42° W 03:55:00 10° SSW
SMAP 3.8 03:46:35 10° NNE 03:51:10 58° E 03:55:44 10° S
USA 215 3.4 03:50:57 10° NNE 03:57:20 58° NW 04:03:43 10° SW
CZ-2C R/B 4.3 03:52:15 10° SE 03:57:22 41° ENE 04:02:34 10° N
